Regional Weather Roundup
Issued by NWS

Home | Current Version | Previous Version | Graphics & Text | Print | Product List | Glossary On
Versions: 1 2 3 4 5 6 7 8 9 10 11 12 13 14 15 16 17 18 19 20 21 22 23 24 25 26 27 28 29 30 31 32 33 34 35 36 37 38 39 40 41 42 43 44 45 46 47 48 49 50
101
ASUS43 KBIS 221220
RWRND

NORTH DAKOTA REGIONAL WEATHER ROUNDUP
NATIONAL WEATHER SERVICE BISMARCK ND
700 AM CDT FRI MAY 22 2015

NOTE: "FAIR" INDICATES FEW OR NO CLOUDS BELOW 12,000 FEET WITH NO
SIGNIFICANT WEATHER AND/OR OBSTRUCTIONS TO VISIBILITY.


NDZ001>003-009>011-017-221300-
NORTHWEST NORTH DAKOTA

CITY           SKY/WX    TMP DP  RH WIND       PRES   REMARKS
WILLISTON      CLEAR     41  37  86 CALM      30.13R
6HR MIN TEMP:  38; 6HR MAX TEMP:  57;

MINOT          CLEAR     49  36  61 CALM      30.14R
MINOT AFB      CLEAR     44  42  93 S3        30.13R
$$

NDZ018>021-031>035-040>046-221300-
SOUTHWEST NORTH DAKOTA

CITY           SKY/WX    TMP DP  RH WIND       PRES   REMARKS
BISMARCK       CLEAR     40  38  93 CALM      30.16S
6HR MIN TEMP:  40; 6HR MAX TEMP:  53;

DICKINSON      CLEAR     42  33  70 E8        30.12S
GARRISON         N/A     45  39  79 E3        30.14S
6HR MIN TEMP:  41; 6HR MAX TEMP:  52;

HETTINGER ARPT CLEAR     34  30  85 CALM      30.14S
$$

NDZ004>008-012>016-024-026-027-054-221300-
NORTHEAST NORTH DAKOTA

CITY           SKY/WX    TMP DP  RH WIND       PRES   REMARKS
GRAND FORKS    SUNNY     43  40  89 CALM      30.16S
GRND FRKS AFB  FAIR      46  40  81 SW3       30.17R
DEVILS LAKE    CLEAR     48  43  81 CALM      30.17R
$$

NDZ022-023-025-028>030-036>039-047>053-221300-
SOUTHEAST NORTH DAKOTA

CITY           SKY/WX    TMP DP  RH WIND       PRES   REMARKS
FARGO          SUNNY     45  41  86 CALM      30.19R
6HR MIN TEMP:  41; 6HR MAX TEMP:  49;

JAMESTOWN      CLEAR     46  42  86 E5        30.18R
$$




USA.gov is the U.S. government's official web portal to all federal, state and local government web resources and services.